• In Romania
  • List of Countries
  • For 7 days
  • Water Temperature
  • Satellite Maps
  • Weather Map
  • Weather Widgets
  • user-avatar
    Login

    Hourly Weather Moiseevka

    Today, 22 September, Saturday

    Time Temperature Precipitation Wind Pressure Humidity
    00:00 +17°C° 0 mm 3 mps 745 mmHg 89%
    01:00 +16°C° 0 mm 3 mps 744 mmHg 87%
    02:00 +16°C° 0 mm 3 mps 744 mmHg 86%
    03:00 +16°C° 0 mm 3 mps 743 mmHg 84%
    04:00 +15°C° 0 mm 4 mps 743 mmHg 81%
    05:00 +15°C° 0 mm 4 mps 743 mmHg 79%
    06:00 +17°C° 0 mm 4 mps 742 mmHg 74%
    07:00 +17°C° 0 mm 5 mps 742 mmHg 70%
    08:00 +19°C° 0 mm 5 mps 741 mmHg 64%
    09:00 +21°C° 0 mm 6 mps 741 mmHg 57%
    10:00 +22°C° 0 mm 6 mps 741 mmHg 51%
    11:00 +24°C° 0 mm 7 mps 740 mmHg 45%
    12:00 +24°C° 0.1 mm 6 mps 740 mmHg 47%
    13:00 +23°C° 0.1 mm 6 mps 740 mmHg 50%
    14:00 +23°C° 0.1 mm 5 mps 740 mmHg 52%
    15:00 +21°C° 0.3 mm 5 mps 740 mmHg 64%
    16:00 +18°C° 0.3 mm 4 mps 740 mmHg 75%
    17:00 +15°C° 0.3 mm 4 mps 740 mmHg 87%
    18:00 +13°C° 0.6 mm 4 mps 740 mmHg 88%
    19:00 +12°C° 0.6 mm 4 mps 740 mmHg 90%
    20:00 +11°C° 0.6 mm 3 mps 741 mmHg 91%
    21:00 +10°C° 0.8 mm 3 mps 741 mmHg 92%
    22:00 +10°C° 0.8 mm 3 mps 741 mmHg 93%
    23:00 +10°C° 0.8 mm 3 mps 741 mmHg 94%

    Tomorrow, 23 September, Sunday

    Time Temperature Precipitation Wind Pressure Humidity
    00:00 +10°C° 0.7 mm 3 mps 741 mmHg 94%
    01:00 +10°C° 0.7 mm 3 mps 741 mmHg 94%
    02:00 +10°C° 0.7 mm 3 mps 741 mmHg 95%
    03:00 +9°C° 0.1 mm 3 mps 741 mmHg 95%
    04:00 +9°C° 0.1 mm 3 mps 740 mmHg 95%
    05:00 +9°C° 0.1 mm 3 mps 740 mmHg 96%
    06:00 +9°C° 0 mm 3 mps 740 mmHg 94%
    07:00 +9°C° 0 mm 3 mps 740 mmHg 92%
    08:00 +9°C° 0 mm 3 mps 740 mmHg 91%
    09:00 +11°C° 0 mm 4 mps 740 mmHg 83%
    10:00 +12°C° 0 mm 4 mps 740 mmHg 75%
    11:00 +13°C° 0 mm 4 mps 740 mmHg 67%
    12:00 +13°C° 0.4 mm 4 mps 739 mmHg 67%
    13:00 +13°C° 0.4 mm 5 mps 739 mmHg 67%
    14:00 +14°C° 0.4 mm 5 mps 739 mmHg 67%
    15:00 +13°C° 0.2 mm 4 mps 739 mmHg 70%
    16:00 +12°C° 0.2 mm 3 mps 739 mmHg 73%
    17:00 +11°C° 0.2 mm 3 mps 739 mmHg 77%
    18:00 +10°C° 0.1 mm 3 mps 739 mmHg 81%
    19:00 +9°C° 0.1 mm 3 mps 739 mmHg 85%
    20:00 +8°C° 0.1 mm 3 mps 740 mmHg 89%
    21:00 +8°C° 0 mm 3 mps 740 mmHg 90%
    22:00 +8°C° 0 mm 3 mps 740 mmHg 91%
    23:00 +8°C° 0 mm 3 mps 740 mmHg 92%

    Day after tomorrow, 24 September, Monday

    Time Temperature Precipitation Wind Pressure Humidity
    00:00 +7°C° 0 mm 3 mps 739 mmHg 93%
    01:00 +7°C° 0 mm 2 mps 739 mmHg 94%
    02:00 +6°C° 0 mm 2 mps 739 mmHg 94%
    03:00 +6°C° 0 mm 2 mps 739 mmHg 95%
    04:00 +6°C° 0 mm 2 mps 739 mmHg 96%
    05:00 +5°C° 0 mm 2 mps 738 mmHg 97%
    06:00 +6°C° 0 mm 2 mps 738 mmHg 94%
    07:00 +7°C° 0 mm 2 mps 738 mmHg 91%
    08:00 +8°C° 0 mm 2 mps 738 mmHg 89%
    09:00 +9°C° 0 mm 2 mps 737 mmHg 86%
    10:00 +10°C° 0 mm 2 mps 737 mmHg 83%
    11:00 +12°C° 0 mm 2 mps 736 mmHg 80%
    12:00 +10°C° 0.9 mm 2 mps 736 mmHg 84%
    13:00 +10°C° 0.9 mm 2 mps 735 mmHg 87%
    14:00 +10°C° 0.9 mm 2 mps 734 mmHg 90%
    15:00 +9°C° 1.8 mm 3 mps 734 mmHg 92%
    16:00 +9°C° 1.8 mm 3 mps 733 mmHg 93%
    17:00 +8°C° 1.8 mm 3 mps 732 mmHg 94%
    18:00 +7°C° 1.3 mm 4 mps 731 mmHg 94%
    19:00 +7°C° 1.3 mm 5 mps 731 mmHg 93%
    20:00 +7°C° 1.3 mm 5 mps 730 mmHg 93%
    21:00 +7°C° 1.2 mm 6 mps 730 mmHg 92%
    22:00 +7°C° 1.2 mm 6 mps 730 mmHg 92%
    23:00 +6°C° 1.2 mm 7 mps 730 mmHg 91%

    25 September, Tuesday

    Time Temperature Precipitation Wind Pressure Humidity
    00:00 +5°C° 0.8 mm 7 mps 731 mmHg 91%
    01:00 +5°C° 0.8 mm 7 mps 731 mmHg 90%
    02:00 +5°C° 0.8 mm 7 mps 732 mmHg 89%
    03:00 +5°C° 0.4 mm 7 mps 733 mmHg 89%
    04:00 +4°C° 0.4 mm 7 mps 734 mmHg 88%
    05:00 +4°C° 0.4 mm 7 mps 734 mmHg 88%
    06:00 +4°C° 0.1 mm 7 mps 735 mmHg 87%
    07:00 +4°C° 0.1 mm 7 mps 736 mmHg 86%
    08:00 +4°C° 0.1 mm 6 mps 737 mmHg 86%
    09:00 +4°C° 0.1 mm 6 mps 738 mmHg 83%
    10:00 +4°C° 0.1 mm 6 mps 739 mmHg 80%
    11:00 +5°C° 0.1 mm 6 mps 740 mmHg 77%
    12:00 +7°C° 0 mm 6 mps 740 mmHg 71%
    13:00 +7°C° 0 mm 6 mps 741 mmHg 65%
    14:00 +8°C° 0 mm 6 mps 742 mmHg 59%
    15:00 +7°C° 0 mm 6 mps 743 mmHg 61%
    16:00 +7°C° 0 mm 5 mps 743 mmHg 62%
    17:00 +6°C° 0 mm 5 mps 744 mmHg 64%
    18:00 +6°C° 0 mm 5 mps 745 mmHg 66%
    19:00 +5°C° 0 mm 4 mps 746 mmHg 69%
    20:00 +4°C° 0 mm 4 mps 746 mmHg 71%
    21:00 +3°C° 0 mm 4 mps 747 mmHg 72%
    22:00 +3°C° 0 mm 3 mps 747 mmHg 73%
    23:00 +2°C° 0 mm 3 mps 748 mmHg 73%

    26 September, Wednesday

    Time Temperature Precipitation Wind Pressure Humidity
    00:00 +2°C° 0 mm 3 mps 748 mmHg 76%
    01:00 +2°C° 0 mm 3 mps 748 mmHg 78%
    02:00 +2°C° 0 mm 3 mps 749 mmHg 81%
    03:00 +2°C° 0 mm 3 mps 749 mmHg 83%
    04:00 +2°C° 0 mm 3 mps 748 mmHg 86%
    05:00 +2°C° 0 mm 3 mps 748 mmHg 88%
    06:00 +3°C° 0 mm 4 mps 748 mmHg 85%
    07:00 +4°C° 0 mm 4 mps 748 mmHg 82%
    08:00 +5°C° 0 mm 4 mps 748 mmHg 79%
    09:00 +6°C° 0.1 mm 5 mps 748 mmHg 79%
    10:00 +6°C° 0.1 mm 5 mps 747 mmHg 80%
    11:00 +7°C° 0.1 mm 5 mps 747 mmHg 81%
    12:00 +8°C° 0.2 mm 5 mps 746 mmHg 83%
    13:00 +8°C° 0.2 mm 5 mps 746 mmHg 84%
    14:00 +8°C° 0.2 mm 5 mps 745 mmHg 86%
    15:00 +8°C° 0.4 mm 5 mps 745 mmHg 87%
    16:00 +8°C° 0.4 mm 5 mps 744 mmHg 89%
    17:00 +8°C° 0.4 mm 5 mps 744 mmHg 91%
    18:00 +7°C° 0.8 mm 6 mps 743 mmHg 91%
    19:00 +7°C° 0.8 mm 6 mps 743 mmHg 90%
    20:00 +6°C° 0.8 mm 7 mps 742 mmHg 90%
    21:00 +6°C° 0.4 mm 7 mps 742 mmHg 90%
    22:00 +5°C° 0.4 mm 7 mps 741 mmHg 90%
    23:00 +5°C° 0.4 mm 7 mps 740 mmHg 89%

    27 September, Thursday

    Time Temperature Precipitation Wind Pressure Humidity
    00:00 +5°C° 0.2 mm 7 mps 739 mmHg 90%
    01:00 +5°C° 0.2 mm 7 mps 739 mmHg 90%
    02:00 +5°C° 0.2 mm 7 mps 738 mmHg 91%
    03:00 +6°C° 0.3 mm 7 mps 737 mmHg 91%
    04:00 +6°C° 0.3 mm 7 mps 737 mmHg 91%
    05:00 +6°C° 0.3 mm 7 mps 736 mmHg 91%
    06:00 +8°C° 0.5 mm 7 mps 736 mmHg 91%
    07:00 +8°C° 0.5 mm 7 mps 735 mmHg 91%
    08:00 +9°C° 0.5 mm 7 mps 735 mmHg 91%
    09:00 +9°C° 0.8 mm 7 mps 735 mmHg 90%
    10:00 +10°C° 0.8 mm 7 mps 734 mmHg 89%
    11:00 +10°C° 0.8 mm 7 mps 734 mmHg 87%
    12:00 +10°C° 0.9 mm 6 mps 734 mmHg 86%
    13:00 +10°C° 0.9 mm 6 mps 734 mmHg 84%
    14:00 +10°C° 0.9 mm 6 mps 733 mmHg 82%
    15:00 +10°C° 0.3 mm 5 mps 734 mmHg 81%
    16:00 +9°C° 0.3 mm 5 mps 734 mmHg 80%
    17:00 +10°C° 0.3 mm 4 mps 734 mmHg 79%
    18:00 +8°C° 0 mm 4 mps 734 mmHg 80%
    19:00 +7°C° 0 mm 4 mps 735 mmHg 80%
    20:00 +6°C° 0 mm 4 mps 735 mmHg 80%
    21:00 +6°C° 0 mm 4 mps 735 mmHg 80%
    22:00 +6°C° 0 mm 4 mps 735 mmHg 79%
    23:00 +5°C° 0 mm 4 mps 735 mmHg 78%
    Show more